Regional Weather Roundup
Issued by NWS

Home | Current Version | Previous Version | Graphics & Text | Print | Product List | Glossary On
Versions: 1 2 3 4 5 6 7 8 9 10 11 12 13 14 15 16 17 18 19 20 21 22 23 24 25 26 27 28 29 30 31 32 33 34 35 36 37 38 39 40 41 42 43 44 45 46 47 48 49 50
000
ASUS43 KDMX 232201
RWRIA

WEATHER ROUNDUP FOR IOWA
NATIONAL WEATHER SERVICE DES MOINES IA
500 PM CDT SUN APR 23 2017

NOTE: "FAIR" INDICATES FEW OR NO CLOUDS BELOW 12,000 FEET WITH NO
SIGNIFICANT WEATHER AND/OR OBSTRUCTIONS TO VISIBILITY.

* - THESE STATIONS ARE NOT NWS STATIONS...THUS NOT UNDER NWS
QUALITY CONTROL.  THEY ALSO DO NOT REPORT WEATHER SUCH
AS PRECIPITATION OR FOG.

IAZ001>003-012>014-020>022-031>034-043>046-232300-
   NORTHWEST IOWA

CITY           SKY/WX    TMP DP  RH WIND       PRES   REMARKS
CARROLL *      MOSUNNY   72  23  16 SW21      29.96F
CHEROKEE *     MOSUNNY   67  33  28 SW16G22   29.93F
DENISON *      MOSUNNY   72  30  21 SW16G25   29.97F
LE MARS *      CLOUDY    72  30  21 SW23G31   29.90F
ORANGE CITY *  PTSUNNY   70  32  24 SW24      29.90F
SHELDON *      PTSUNNY   70  27  19 S22G29    29.89F
SIOUX CITY     PTSUNNY   73  27  18 S21G31    29.91F
SPENCER        CLOUDY    71  29  21 MISG      29.92F
STORM LAKE *   MOSUNNY   70  27  19 S18G28    29.95F
$$

IAZ055>058-069>071-079>083-090>094-232300-
   SOUTHWEST IOWA

CITY           SKY/WX    TMP DP  RH WIND       PRES   REMARKS
ATLANTIC *     CLOUDY    70  30  23 SW16G23   29.98F
AUDUBON *      CLOUDY    72  18  13 S14G20    29.99F
CLARINDA *     CLOUDY    70  30  23 S13G23    30.02F
COUNCIL BLFS * SUNNY     70  30  23 S16G22    29.97F
CRESTON *      MOSUNNY   68  32  26 S16       30.02F
HARLAN  *      MOSUNNY   72  27  18 SW17G30   30.01S
LAMONI         SUNNY     70  35  27 SW13      30.02F
RED OAK *      CLOUDY    72  28  20 S17       29.99F
SHENANDOAH *   CLOUDY    72  27  18 S13G24    29.99F
$$

IAZ047>049-059>061-072>074-084-232300-
   CENTRAL IOWA

CITY           SKY/WX    TMP DP  RH WIND       PRES   REMARKS
AMES           SUNNY     71  33  24 S15G21    29.98F
ANKENY *       SUNNY     72  32  23 S14G20    30.00F
BOONE *        SUNNY     72  25  17 S15       29.97F
CHARITON *     CLOUDY    70  32  24 SW8G14    30.01F
DES MOINES     PTSUNNY   73  31  21 SW12      30.00F
GRINNELL*      SUNNY     72  27  18 S10       30.02F
KNOXVILLE *    SUNNY     70  30  23 S9G15     30.00F
MARSHALLTOWN   SUNNY     71  31  22 SW14      29.99F
NEWTON *       SUNNY     70  27  19 S10       30.00S
PELLA *        SUNNY     73  30  20 W8G16     30.02F
PERRY *          N/A     72  20  13 SW17      29.98F
$$

IAZ004>006-015-016-023>025-035-036-232300-
   NORTH CENTRAL IOWA

CITY           SKY/WX    TMP DP  RH WIND       PRES   REMARKS
ALGONA *       MOSUNNY   72  28  20 SW16G24   29.95F
CLARION *      SUNNY     72  25  17 S18G25    29.97F
ESTHERVILLE    CLOUDY    69  27  20 SW17G26   29.92F
FORT DODGE *   MOSUNNY   72  30  21 S15G21    29.97F
MASON CITY     SUNNY     71  29  21 SW14G22   29.98F
FOREST CITY *    N/A     70  28  21 SW17      29.96F
WEBSTER CITY * SUNNY     73  25  16 SW18G26   29.96S
IOWA FALLS *     N/A     73  29  20 S12       29.99F
$$

IAZ007>011-017>019-026>030-037>042-050>054-066-232300-
   NORTHEAST IOWA

CITY           SKY/WX    TMP DP  RH WIND       PRES   REMARKS
CEDAR RAPIDS   SUNNY     70  33  25 SW7       30.00F
CHARLES CITY * PTSUNNY   72  25  17 SW15G22   29.99F
DECORAH *      SUNNY     70  30  23 SW8       29.98S
DUBUQUE        SUNNY     70  34  26 W8        30.01F
MONTICELLO *   SUNNY     72  32  23 SW7       30.00F
OELWEIN *      SUNNY     70  30  23 SW13      30.00S
WATERLOO       SUNNY     72  30  21 SW12      29.98F
$$

IAZ064-065-067-068-078-232300-
   EAST CENTRAL IOWA

CITY           SKY/WX    TMP DP  RH WIND       PRES   REMARKS
DAVENPORT      SUNNY     71  26  18 CALM      30.02F
IOWA CITY      SUNNY     72  31  22 W8        30.03F
MUSCATINE *    SUNNY     72  27  18 CALM      30.02F
QUAD CITIES    SUNNY     73  32  22 CALM      30.02F
$$

IAZ062-063-075>077-085>089-095>099-232300-
   SOUTHEAST IOWA

CITY           SKY/WX    TMP DP  RH WIND       PRES   REMARKS
BURLINGTON     SUNNY     71  26  18 CALM      30.03F
FAIRFIELD *    SUNNY     70  30  23 CALM      30.02F
FORT MADISON * SUNNY     75  34  22 SE3       30.04F
KEOKUK *       SUNNY     70  30  23 VRB5      30.03F
OSKALOOSA *      N/A     72  30  21 S10       30.02F
OTTUMWA        SUNNY     71  28  20 S8        30.01F
WASHINGTON *   SUNNY     72  28  20 S7        30.03F
$$

ABBREVIATIONS USED IN REMARKS
   TC - TEMPERATURES IN CELSIUS
  WCI - WIND CHILL INDEX
   HX - HEAT INDEX
  VSB - VISIBILITY
$$





USA.gov is the U.S. government's official web portal to all federal, state and local government web resources and services.